Flag for Greece Weather past 2 weeks in Kalamata, Greece

Now
61 °F

Clear.


Feels Like: 61 °F
Forecast: 68 / 92 °F
Wind: No wind

Location: Kalamata Airport

Current Time: Aug 29, 2015 at 3:50:38 AM

Latest Report: Aug 29, 2015 at 2:50 AM


Visibility: 10 mi

Pressure: 30.04 "Hg

Humidity: 77%

Dew point: 54 °F

Location of KalamataLocation

Historic Weather in Kalamata — Graph

°F

Kalamata temperature yesterday

Maximum temperature yesterday: 90 °F (at 11:20 AM)
Minimum temperature yesterday: 61 °F (at 3:50 AM)
Average temperature yesterday: 78 °F

Past Weeks' High & Low Weather Summary

 TemperatureHumidityPressure
High93 °F (Aug 20, 1:20 PM)88% (Aug 14, 3:50 AM)30.07 "Hg (Aug 14, 3:50 AM)
Low61 °F (Aug 28, 3:50 AM)17% (Aug 28, 11:20 AM)29.77 "Hg (Aug 14, 4:50 AM)
Average80 °F55%29.89 "Hg
* Reported Aug 14 1:50 AM — Aug 29 1:50 AM, Kalamata, Weather by CustomWeather, © 2015

Note: Actual official high and low records may vary slightly from our data, if they occured in-between our weather recording intervals... More about our weather records

Advertising

Kalamata weather history for previous 24 hours

 ConditionsComfort  
Time TempWeatherWind HumidityBarometerVisibility
1:50 AM
Sat, Aug 29
63 °FClear.5 mph73%30.04 "Hg10 mi
12:50 AM64 °FClear.No wind73%30.07 "Hg10 mi
11:50 PM
Fri, Aug 28
66 °FClear.No wind73%30.07 "Hg10 mi
10:50 PM68 °FClear.No wind69%30.07 "Hg10 mi
9:50 PM70 °FClear.No wind73%30.04 "Hg10 mi
9:20 PM70 °FClear.No wind73%30.04 "Hg10 mi
8:50 PM73 °FSunny.No wind69%30.01 "Hg10 mi
8:20 PM75 °FSunny.No wind61%30.01 "Hg10 mi
7:50 PM79 °FSunny.No wind54%30.01 "Hg10 mi
7:20 PM82 °FSunny.5 mph45%30.01 "Hg10 mi
6:50 PM84 °FSunny.7 mph33%30.01 "Hg10 mi
6:20 PM86 °FSunny.7 mph33%30.01 "Hg10 mi
5:50 PM86 °FSunny.9 mph35%30.01 "Hg10 mi
5:20 PM88 °FSunny.9 mph29%30.01 "Hg10 mi
4:50 PM88 °FSunny.9 mph29%30.01 "Hg10 mi
4:20 PM88 °FSunny.9 mph27%30.01 "Hg10 mi
3:50 PM88 °FSunny.9 mph29%30.01 "Hg10 mi
3:20 PM88 °FSunny.7 mph31%30.01 "Hg10 mi
2:50 PM86 °FSunny.9 mph31%30.01 "Hg10 mi
2:20 PM88 °FSunny.9 mph29%30.01 "Hg10 mi
1:50 PM88 °FSunny.9 mph31%30.01 "Hg10 mi
1:20 PM88 °FSunny.8 mph27%30.01 "Hg10 mi
12:50 PM88 °FSunny.7 mph24%30.01 "Hg10 mi
12:20 PM90 °FSunny.6 mph24%30.01 "Hg10 mi
11:50 AM90 °FSunny.No wind20%30.01 "Hg10 mi
11:20 AM90 °FSunny.No wind17%30.01 "Hg10 mi
10:50 AM88 °FSunny.No wind25%30.04 "Hg10 mi
10:20 AM84 °FSunny.No wind33%30.01 "Hg10 mi
9:50 AM82 °FSunny.No wind28%30.01 "Hg10 mi
9:20 AM77 °FSunny.No wind36%30.01 "Hg10 mi
8:50 AM73 °FSunny.7 mph38%30.01 "Hg10 mi
8:20 AM70 °FSunny.7 mph43%30.01 "Hg10 mi
7:50 AM68 °FClear.5 mph43%30.01 "Hg10 mi
7:20 AM68 °FClear.No wind43%30.01 "Hg10 mi
6:50 AM66 °FClear.5 mph46%30.01 "Hg10 mi
5:50 AM66 °FClear.5 mph49%30.01 "Hg10 mi
4:50 AM63 °FClear.No wind68%30.01 "Hg10 mi
3:50 AM61 °FClear.5 mph83%30.01 "Hg10 mi
Weather by CustomWeather, © 2015

See weather overviewHow to use our weather pages